Location: Stoke Bliss
(52.2667°N, 2.5167°W)
Time: 14:50:26
(UTC+00:00)

Meteor 1-13 Rocket - Pass Details

Date: 03 March 2021
Orbit: 830 x 913 km, 81.3° (Epoch: 13 April)

Event Time Altitude Azimuth Distance (km) Brightness Sun altitude
Rises 19:33:46 0° 347° (NNW) 3,561 7.8 -16.1°
Reaches altitude 10° 19:36:16 10° 350° (N) 2,614 7.0 -16.5°
Maximum altitude 19:42:16 74° 75° (ENE) 947 4.3 -17.4°
Drops below altitude 10° 19:48:07 10° 161° (SSE) 2,565 6.4 -18.2°
Enters shadow 19:48:37 - 161° (SSE) 2,748 6.6 -18.3°
